Flag for U.S.A. Weather past 2 weeks in Chula Vista, California, U.S.A.

Now
68 °F

Fog.


Feels Like: 68 °F
Forecast: 68 / 82 °F
Wind: No wind

Location: Brown Field Municipal Airport

Current Time: Jul 31, 2014 at 3:04:58 AM

Latest Report: Jul 31, 2014 at 1:53 AM


Visibility: 6 mi

Pressure: 29.92 "Hg

Humidity: 93%

Dew point: 66 °F

Location of Chula VistaLocation

Historic Weather in Chula Vista — Graph

°F

Chula Vista temperature yesterday

Maximum temperature yesterday: 81 °F (at 11:53 AM)
Minimum temperature yesterday: 67 °F (at 1:53 AM)
Average temperature yesterday: 73 °F

Past Weeks' High & Low Weather Summary

 TemperatureHumidityPressure
High89 °F (Jul 29, 1:53 PM)97% (Jul 24, 6:04 AM)30.06 "Hg (Jul 24, 6:04 AM)
Low62 °F (Jul 18, 4:53 AM)26% (Jul 29, 2:53 PM)29.75 "Hg (Jul 24, 5:53 PM)
Average72 °F73%29.96 "Hg
* Reported Jul 16 1:53 AM — Jul 31 1:53 AM, Chula Vista, Weather by CustomWeather, © 2014

Note: Actual official high and low records may vary slightly from our data, if they occured in-between our weather recording intervals... More about our weather records

Advertising

Chula Vista weather history for previous 24 hours

 ConditionsComfort  
Time TempWeatherWind HumidityBarometerVisibility
1:53 AM
Jul 31
68 °FFog.No wind93%29.92 "Hg6 mi
12:53 AM67 °FClear.3 mph93%29.93 "Hg7 mi
11:53 PM
Jul 30
69 °FClear.No wind90%29.93 "Hg7 mi
10:53 PM68 °FClear.3 mph90%29.94 "Hg7 mi
9:53 PM69 °FClear.3 mph87%29.94 "Hg10 mi
8:53 PM70 °FClear.5 mph84%29.92 "Hg10 mi
7:53 PM72 °FSunny.7 mph76%29.91 "Hg10 mi
6:53 PM75 °FSunny.7 mph66%29.90 "Hg10 mi
5:53 PM78 °FSunny.7 mph60%29.89 "Hg10 mi
4:53 PM78 °FSunny.7 mph62%29.90 "Hg10 mi
3:53 PM80 °FSunny.9 mph52%29.91 "Hg10 mi
2:53 PM81 °FSunny.9 mph53%29.93 "Hg10 mi
1:53 PM80 °FSunny.9 mph56%29.94 "Hg10 mi
12:53 PM81 °FSunny.10 mph54%29.94 "Hg10 mi
11:53 AM81 °FSunny.8 mph53%29.94 "Hg10 mi
10:53 AM79 °FSunny.9 mph62%29.96 "Hg10 mi
9:53 AM77 °FSunny.7 mph69%29.96 "Hg10 mi
8:53 AM75 °FSunny.5 mph74%29.95 "Hg10 mi
7:53 AM72 °FSunny.No wind81%29.95 "Hg10 mi
7:03 AM68 °FFog.No wind93%29.96 "Hg3 mi
6:58 AM67 °FFog.No wind97%29.96 "Hg2 mi
5:53 AM68 °FFog.No wind96%29.94 "Hg1 mi
4:53 AM67 °FFog.No wind97%29.94 "Hg0 mi
3:53 AM68 °FFog.No wind93%29.93 "Hg1 mi
Weather by CustomWeather, © 2014

See weather overviewHow to use our weather pages